Year,Month,Day,Hour,Minute,Value (Times are PST for temperature in C)
2012,10,23,00,00,5.80
2012,10,23,00,01,5.80
2012,10,23,00,02,5.80
2012,10,23,00,03,5.70
2012,10,23,00,05,5.70
2012,10,23,00,06,5.70
2012,10,23,00,07,5.70
2012,10,23,00,08,5.70
2012,10,23,00,10,5.70
2012,10,23,00,11,5.70
2012,10,23,00,12,5.70
2012,10,23,00,14,5.70
2012,10,23,00,15,5.80
2012,10,23,00,16,5.80
2012,10,23,00,18,5.80
2012,10,23,00,19,5.80
2012,10,23,00,20,5.80
2012,10,23,00,21,5.80
2012,10,23,00,23,5.80
2012,10,23,00,25,5.80
2012,10,23,00,27,5.80
2012,10,23,00,29,5.80
2012,10,23,00,30,5.80
2012,10,23,00,32,5.80
2012,10,23,00,33,5.80
2012,10,23,00,34,5.80
2012,10,23,00,35,5.80
2012,10,23,00,37,5.80
2012,10,23,00,38,5.80
2012,10,23,00,39,5.80
2012,10,23,00,41,5.80
2012,10,23,00,42,5.80
2012,10,23,00,43,5.80
2012,10,23,00,45,5.80
2012,10,23,00,46,5.80
2012,10,23,00,48,5.80
2012,10,23,00,49,5.90
2012,10,23,00,50,5.90
2012,10,23,00,52,5.90
2012,10,23,00,53,5.90
2012,10,23,00,55,5.90
2012,10,23,00,56,5.90
2012,10,23,00,58,5.90
2012,10,23,00,59,5.90
2012,10,23,01,00,5.90
2012,10,23,01,01,5.80
2012,10,23,01,03,5.80
2012,10,23,01,04,5.90
2012,10,23,01,05,5.80
2012,10,23,01,06,5.80
2012,10,23,01,07,5.80
2012,10,23,01,08,5.80
2012,10,23,01,09,5.80
2012,10,23,01,10,5.80
2012,10,23,01,11,5.80
2012,10,23,01,12,5.80
2012,10,23,01,13,5.80
2012,10,23,01,14,5.80
2012,10,23,01,15,5.80
2012,10,23,01,16,5.80
2012,10,23,01,17,5.80
2012,10,23,01,19,5.80
2012,10,23,01,20,5.80
2012,10,23,01,21,5.80
2012,10,23,01,23,5.80
2012,10,23,01,24,5.80
2012,10,23,01,25,5.80
2012,10,23,01,26,5.80
2012,10,23,01,27,5.80
2012,10,23,01,28,5.80
2012,10,23,01,29,5.80
2012,10,23,01,30,5.80
2012,10,23,01,31,5.80
2012,10,23,01,33,5.80
2012,10,23,01,34,5.80
2012,10,23,01,35,5.80
2012,10,23,01,36,5.80
2012,10,23,01,37,5.80
2012,10,23,01,38,5.80
2012,10,23,01,39,5.80
2012,10,23,01,40,5.80
2012,10,23,01,42,5.80
2012,10,23,01,43,5.70
2012,10,23,01,44,5.70
2012,10,23,01,45,5.70
2012,10,23,01,46,5.70
2012,10,23,01,47,5.70
2012,10,23,01,48,5.70
2012,10,23,01,49,5.70
2012,10,23,01,50,5.70
2012,10,23,01,51,5.70
2012,10,23,01,52,5.60
2012,10,23,01,53,5.60
2012,10,23,01,54,5.60
2012,10,23,01,55,5.60
2012,10,23,01,56,5.60
2012,10,23,01,57,5.50
2012,10,23,01,58,5.50
2012,10,23,01,59,5.50
2012,10,23,02,00,5.40
2012,10,23,02,01,5.40
2012,10,23,02,02,5.40
2012,10,23,02,03,5.40
2012,10,23,02,04,5.40
2012,10,23,02,05,5.40
2012,10,23,02,06,5.40
2012,10,23,02,08,5.40
2012,10,23,02,09,5.30
2012,10,23,02,10,5.30
2012,10,23,02,11,5.30
2012,10,23,02,12,5.30
2012,10,23,02,13,5.30
2012,10,23,02,14,5.30
2012,10,23,02,15,5.30
2012,10,23,02,17,5.30
2012,10,23,02,18,5.30
2012,10,23,02,19,5.30
2012,10,23,02,21,5.30
2012,10,23,02,22,5.30
2012,10,23,02,23,5.30
2012,10,23,02,24,5.30
2012,10,23,02,25,5.30
2012,10,23,02,26,5.30
2012,10,23,02,27,5.20
2012,10,23,02,28,5.20
2012,10,23,02,30,5.20
2012,10,23,02,31,5.20
2012,10,23,02,32,5.20
2012,10,23,02,33,5.20
2012,10,23,02,34,5.20
2012,10,23,02,35,5.20
2012,10,23,02,37,5.20
2012,10,23,02,38,5.20
2012,10,23,02,39,5.20
2012,10,23,02,40,5.20
2012,10,23,02,41,5.20
2012,10,23,02,42,5.20
2012,10,23,02,43,5.20
2012,10,23,02,44,5.20
2012,10,23,02,45,5.10
2012,10,23,02,46,5.10
2012,10,23,02,47,5.10
2012,10,23,02,48,5.10
2012,10,23,02,49,5.10
2012,10,23,02,50,5.10
2012,10,23,02,52,5.10
2012,10,23,02,53,5.10
2012,10,23,02,54,5.10
2012,10,23,02,56,5.10
2012,10,23,02,57,5.10
2012,10,23,02,58,5.10
2012,10,23,02,59,5.10
2012,10,23,03,00,5.10
2012,10,23,03,01,5.10
2012,10,23,03,02,5.10
2012,10,23,03,03,5.10
2012,10,23,03,05,5.10
2012,10,23,03,06,5.10
2012,10,23,03,07,5.10
2012,10,23,03,08,5.10
2012,10,23,03,10,5.10
2012,10,23,03,11,5.10
2012,10,23,03,12,5.10
2012,10,23,03,14,5.10
2012,10,23,03,15,5.10
2012,10,23,03,16,5.10
2012,10,23,03,17,5.10
2012,10,23,03,18,5.10
2012,10,23,03,19,5.10
2012,10,23,03,20,5.10
2012,10,23,03,21,5.10
2012,10,23,03,22,5.10
2012,10,23,03,23,5.10
2012,10,23,03,24,5.10
2012,10,23,03,25,5.10
2012,10,23,03,27,5.10
2012,10,23,03,28,5.10
2012,10,23,03,29,5.10
2012,10,23,03,31,5.10
2012,10,23,03,32,5.10
2012,10,23,03,33,5.10
2012,10,23,03,34,5.10
2012,10,23,03,35,5.10
2012,10,23,03,36,5.10
2012,10,23,03,37,5.10
2012,10,23,03,39,5.10
2012,10,23,03,40,5.10
2012,10,23,03,42,5.10
2012,10,23,03,43,5.10
2012,10,23,03,44,5.10
2012,10,23,03,45,5.10
2012,10,23,03,46,5.10
2012,10,23,03,47,5.00
2012,10,23,03,48,5.10
2012,10,23,03,50,5.00
2012,10,23,03,52,5.10
2012,10,23,03,53,5.10
2012,10,23,03,54,5.10
2012,10,23,03,55,5.10
2012,10,23,03,56,5.10
2012,10,23,03,57,5.10
2012,10,23,03,59,5.10
2012,10,23,04,00,5.10
2012,10,23,04,01,5.10
2012,10,23,04,02,5.00
2012,10,23,04,03,5.00
2012,10,23,04,04,5.00
2012,10,23,04,05,5.00
2012,10,23,04,06,5.00
2012,10,23,04,07,5.00
2012,10,23,04,08,5.00
2012,10,23,04,10,5.00
2012,10,23,04,11,5.00
2012,10,23,04,12,5.00
2012,10,23,04,14,5.00
2012,10,23,04,15,5.00
2012,10,23,04,16,4.90
2012,10,23,04,18,4.90
2012,10,23,04,19,4.90
2012,10,23,04,20,4.90
2012,10,23,04,21,4.90
2012,10,23,04,23,4.90
2012,10,23,04,24,4.90
2012,10,23,04,25,4.90
2012,10,23,04,27,4.90
2012,10,23,04,28,4.90
2012,10,23,04,29,4.90
2012,10,23,04,31,4.90
2012,10,23,04,32,4.90
2012,10,23,04,33,4.90
2012,10,23,04,34,4.80
2012,10,23,04,35,4.90
2012,10,23,04,37,4.80
2012,10,23,04,38,4.80
2012,10,23,04,39,4.80
2012,10,23,04,41,4.80
2012,10,23,04,42,4.80
2012,10,23,04,43,4.80
2012,10,23,04,45,4.80
2012,10,23,04,46,4.80
2012,10,23,04,47,4.80
2012,10,23,04,49,4.80
2012,10,23,04,50,4.80
2012,10,23,04,51,4.80
2012,10,23,04,53,4.80
2012,10,23,04,54,4.80
2012,10,23,04,55,4.80
2012,10,23,04,56,4.80
2012,10,23,04,58,4.80
2012,10,23,04,59,4.80
2012,10,23,05,00,4.80
2012,10,23,05,01,4.80
2012,10,23,05,02,4.80
2012,10,23,05,03,4.80
2012,10,23,05,04,4.80
2012,10,23,05,06,4.90
2012,10,23,05,08,4.80
2012,10,23,05,09,4.90
2012,10,23,05,10,4.90
2012,10,23,05,12,4.90
2012,10,23,05,13,4.90
2012,10,23,05,14,4.90
2012,10,23,05,16,4.90
2012,10,23,05,17,4.90
2012,10,23,05,18,4.90
2012,10,23,05,20,4.90
2012,10,23,05,21,4.90
2012,10,23,05,23,4.90
2012,10,23,05,25,4.90
2012,10,23,05,26,4.90
2012,10,23,05,28,4.90
2012,10,23,05,29,4.90
2012,10,23,05,30,4.90
2012,10,23,05,31,4.90
2012,10,23,05,33,4.90
2012,10,23,05,34,4.90
2012,10,23,05,35,4.90
2012,10,23,05,36,4.90
2012,10,23,05,37,4.90
2012,10,23,05,38,4.90
2012,10,23,05,39,4.90
2012,10,23,05,40,4.90
2012,10,23,05,41,4.90
2012,10,23,05,43,4.90
2012,10,23,05,44,4.90
2012,10,23,05,45,4.90
2012,10,23,05,47,4.90
2012,10,23,05,48,4.90
2012,10,23,05,49,4.90
2012,10,23,05,51,4.90
2012,10,23,05,52,4.90
2012,10,23,05,53,4.90
2012,10,23,05,55,4.90
2012,10,23,05,56,4.90
2012,10,23,05,57,4.90
2012,10,23,05,59,4.90
2012,10,23,06,00,4.90
2012,10,23,06,01,4.90
2012,10,23,06,03,4.80
2012,10,23,06,04,4.80
2012,10,23,06,05,4.80
2012,10,23,06,06,4.80
2012,10,23,06,07,4.80
2012,10,23,06,08,4.80
2012,10,23,06,09,4.80
2012,10,23,06,10,4.80
2012,10,23,06,12,4.80
2012,10,23,06,14,4.80
2012,10,23,06,15,4.80
2012,10,23,06,16,4.80
2012,10,23,06,17,4.80
2012,10,23,06,18,4.70
2012,10,23,06,19,4.80
2012,10,23,06,20,4.70
2012,10,23,06,21,4.70
2012,10,23,06,23,4.70
2012,10,23,06,24,4.70
2012,10,23,06,26,4.70
2012,10,23,06,27,4.70
2012,10,23,06,28,4.70
2012,10,23,06,29,4.70
2012,10,23,06,30,4.70
2012,10,23,06,31,4.70
2012,10,23,06,32,4.70
2012,10,23,06,33,4.70
2012,10,23,06,35,4.70
2012,10,23,06,36,4.60
2012,10,23,06,37,4.60
2012,10,23,06,38,4.60
2012,10,23,06,39,4.60
2012,10,23,06,41,4.60
2012,10,23,06,42,4.60
2012,10,23,06,43,4.60
2012,10,23,06,45,4.60
2012,10,23,06,46,4.60
2012,10,23,06,47,4.60
2012,10,23,06,49,4.60
2012,10,23,06,50,4.60
2012,10,23,06,51,4.60
2012,10,23,06,53,4.50
2012,10,23,06,54,4.50
2012,10,23,06,55,4.50
2012,10,23,06,57,4.50
2012,10,23,06,58,4.50
2012,10,23,07,00,4.50
2012,10,23,07,01,4.50
2012,10,23,07,03,4.50
2012,10,23,07,04,4.40
2012,10,23,07,05,4.40
2012,10,23,07,06,4.40
2012,10,23,07,07,4.40
2012,10,23,07,08,4.50
2012,10,23,07,09,4.40
2012,10,23,07,10,4.40
2012,10,23,07,11,4.40
2012,10,23,07,12,4.40
2012,10,23,07,13,4.40
2012,10,23,07,14,4.40
2012,10,23,07,15,4.40
2012,10,23,07,16,4.40
2012,10,23,07,18,4.40
2012,10,23,07,19,4.40
2012,10,23,07,20,4.40
2012,10,23,07,21,4.40
2012,10,23,07,22,4.40
2012,10,23,07,23,4.40
2012,10,23,07,25,4.40
2012,10,23,07,26,4.40
2012,10,23,07,27,4.40
2012,10,23,07,29,4.40
2012,10,23,07,30,4.30
2012,10,23,07,31,4.30
2012,10,23,07,33,4.30
2012,10,23,07,34,4.30
2012,10,23,07,35,4.30
2012,10,23,07,37,4.30
2012,10,23,07,38,4.30
2012,10,23,07,39,4.30
2012,10,23,07,41,4.30
2012,10,23,07,42,4.30
2012,10,23,07,43,4.30
2012,10,23,07,44,4.30
2012,10,23,07,45,4.30
2012,10,23,07,46,4.30
2012,10,23,07,47,4.30
2012,10,23,07,49,4.30
2012,10,23,07,51,4.30
2012,10,23,07,53,4.30
2012,10,23,07,54,4.30
2012,10,23,07,55,4.30
2012,10,23,07,57,4.30
2012,10,23,07,58,4.30
2012,10,23,07,59,4.30
2012,10,23,08,00,4.30
2012,10,23,08,02,4.30
2012,10,23,08,03,4.30
2012,10,23,08,04,4.30
2012,10,23,08,05,4.30
2012,10,23,08,06,4.30
2012,10,23,08,07,4.30
2012,10,23,08,08,4.30
2012,10,23,08,10,4.20
2012,10,23,08,12,4.20
2012,10,23,08,13,4.20
2012,10,23,08,14,4.20
2012,10,23,08,16,4.20
2012,10,23,08,17,4.20
2012,10,23,08,18,4.20
2012,10,23,08,20,4.20
2012,10,23,08,21,4.20
2012,10,23,08,22,4.10
2012,10,23,08,24,4.10
2012,10,23,08,26,4.10
2012,10,23,08,28,4.10
2012,10,23,08,29,4.10
2012,10,23,08,30,4.10
2012,10,23,08,31,4.10
2012,10,23,08,33,4.10
2012,10,23,08,34,4.10
2012,10,23,08,36,4.10
2012,10,23,08,37,4.10
2012,10,23,08,38,4.10
2012,10,23,08,39,4.10
2012,10,23,08,40,4.10
2012,10,23,08,41,4.10
2012,10,23,08,42,4.10
2012,10,23,08,43,4.10
2012,10,23,08,44,4.10
2012,10,23,08,45,4.10
2012,10,23,08,46,4.10
2012,10,23,08,47,4.10
2012,10,23,08,48,4.10
2012,10,23,08,49,4.10
2012,10,23,08,50,4.10
2012,10,23,08,51,4.10
2012,10,23,08,52,4.10
2012,10,23,08,54,4.20
2012,10,23,08,55,4.20
2012,10,23,08,56,4.20
2012,10,23,08,57,4.20
2012,10,23,08,59,4.20
2012,10,23,09,00,4.20
2012,10,23,09,01,4.20
2012,10,23,09,02,4.20
2012,10,23,09,03,4.20
2012,10,23,09,05,4.30
2012,10,23,09,06,4.30
2012,10,23,09,07,4.30
2012,10,23,09,08,4.30
2012,10,23,09,09,4.30
2012,10,23,09,10,4.30
2012,10,23,09,12,4.30
2012,10,23,09,13,4.40
2012,10,23,09,15,4.40
2012,10,23,09,16,4.40
2012,10,23,09,18,4.40
2012,10,23,09,19,4.40
2012,10,23,09,20,4.50
2012,10,23,09,21,4.50
2012,10,23,09,22,4.60
2012,10,23,09,24,4.60
2012,10,23,09,25,4.60
2012,10,23,09,26,4.60
2012,10,23,09,28,4.60
2012,10,23,09,29,4.60
2012,10,23,09,30,4.70
2012,10,23,09,31,4.70
2012,10,23,09,33,4.70
2012,10,23,09,35,4.70
2012,10,23,09,36,4.70
2012,10,23,09,38,4.80
2012,10,23,09,39,4.80
2012,10,23,09,41,4.80
2012,10,23,09,42,4.80
2012,10,23,09,43,4.90
2012,10,23,09,44,4.90
2012,10,23,09,46,4.90
2012,10,23,09,47,4.90
2012,10,23,09,49,4.90
2012,10,23,09,50,4.90
2012,10,23,09,51,5.00
2012,10,23,09,52,5.00
2012,10,23,09,54,5.10
2012,10,23,09,55,5.10
2012,10,23,09,57,5.10
2012,10,23,09,59,5.10
2012,10,23,10,00,5.10
2012,10,23,10,01,5.10
2012,10,23,10,02,5.10
2012,10,23,10,04,5.10
2012,10,23,10,05,5.10
2012,10,23,10,06,5.20
2012,10,23,10,08,5.20
2012,10,23,10,09,5.20
2012,10,23,10,10,5.20
2012,10,23,10,12,5.20
2012,10,23,10,13,5.20
2012,10,23,10,14,5.20
2012,10,23,10,15,5.20
2012,10,23,10,16,5.20
2012,10,23,10,18,5.20
2012,10,23,10,20,5.20
2012,10,23,10,21,5.30
2012,10,23,10,22,5.30
2012,10,23,10,23,5.30
2012,10,23,10,25,5.30
2012,10,23,10,26,5.30
2012,10,23,10,28,5.30
2012,10,23,10,29,5.40
2012,10,23,10,30,5.40
2012,10,23,10,31,5.40
2012,10,23,10,32,5.40
2012,10,23,10,33,5.40
2012,10,23,10,34,5.50
2012,10,23,10,35,5.50
2012,10,23,10,36,5.50
2012,10,23,10,38,5.60
2012,10,23,10,39,5.60
2012,10,23,10,40,5.60
2012,10,23,10,42,5.60
2012,10,23,10,44,5.60
2012,10,23,10,45,5.70
2012,10,23,10,47,5.70
2012,10,23,10,48,5.70
2012,10,23,10,49,5.70
2012,10,23,10,50,5.80
2012,10,23,10,52,5.80
2012,10,23,10,53,5.80
2012,10,23,10,54,5.80
2012,10,23,10,56,5.90
2012,10,23,10,57,5.90
2012,10,23,10,59,5.90
2012,10,23,11,00,5.90
2012,10,23,11,01,5.90
2012,10,23,11,02,5.90
2012,10,23,11,04,6.00
2012,10,23,11,05,6.00
2012,10,23,11,06,6.10
2012,10,23,11,07,6.10
2012,10,23,11,09,6.10
2012,10,23,11,10,6.10
2012,10,23,11,11,6.10
2012,10,23,11,13,6.20
2012,10,23,11,14,6.20
2012,10,23,11,15,6.20
2012,10,23,11,17,6.20
2012,10,23,11,18,6.20
2012,10,23,11,20,6.20
2012,10,23,11,21,6.20
2012,10,23,11,23,6.20
2012,10,23,11,24,6.20
2012,10,23,11,25,6.30
2012,10,23,11,26,6.30
2012,10,23,11,28,6.30
2012,10,23,11,29,6.30
2012,10,23,11,31,6.40
2012,10,23,11,32,6.40
2012,10,23,11,33,6.40
2012,10,23,11,34,6.40
2012,10,23,11,35,6.40
2012,10,23,11,36,6.40
2012,10,23,11,38,6.50
2012,10,23,11,39,6.60
2012,10,23,11,40,6.60
2012,10,23,11,41,6.60
2012,10,23,11,42,6.70
2012,10,23,11,43,6.70
2012,10,23,11,44,6.70
2012,10,23,11,46,6.80
2012,10,23,11,48,6.90
2012,10,23,11,50,6.90
2012,10,23,11,51,6.90
2012,10,23,11,52,7.00
2012,10,23,11,53,7.00
2012,10,23,11,54,7.00
2012,10,23,11,55,7.00
2012,10,23,11,56,7.00
2012,10,23,11,57,7.10
2012,10,23,11,59,7.10
2012,10,23,12,00,7.10
2012,10,23,12,01,7.10
2012,10,23,12,02,7.10
2012,10,23,12,03,7.10
2012,10,23,12,04,7.10
2012,10,23,12,05,7.00
2012,10,23,12,06,7.00
2012,10,23,12,07,7.00
2012,10,23,12,08,6.90
2012,10,23,12,10,6.90
2012,10,23,12,11,6.90
2012,10,23,12,13,6.80
2012,10,23,12,14,6.80
2012,10,23,12,15,6.80
2012,10,23,12,16,6.80
2012,10,23,12,17,6.80
2012,10,23,12,19,6.80
2012,10,23,12,20,6.80
2012,10,23,12,21,6.80
2012,10,23,12,23,6.80
2012,10,23,12,24,6.80
2012,10,23,12,25,6.80
2012,10,23,12,27,6.80
2012,10,23,12,28,6.80
2012,10,23,12,29,6.80
2012,10,23,12,30,6.80
2012,10,23,12,32,6.80
2012,10,23,12,33,6.80
2012,10,23,12,34,6.80
2012,10,23,12,35,6.90
2012,10,23,12,36,6.90
2012,10,23,12,37,6.90
2012,10,23,12,38,6.90
2012,10,23,12,40,6.90
2012,10,23,12,41,6.90
2012,10,23,12,42,6.90
2012,10,23,12,43,6.90
2012,10,23,12,45,7.00
2012,10,23,12,46,7.10
2012,10,23,12,48,7.10
2012,10,23,12,49,7.10
2012,10,23,12,50,7.10
2012,10,23,12,52,7.10
2012,10,23,12,53,7.10
2012,10,23,12,54,7.10
2012,10,23,12,56,7.10
2012,10,23,12,58,7.10
2012,10,23,12,59,7.10
2012,10,23,13,00,7.10
2012,10,23,13,01,7.10
2012,10,23,13,02,7.10
2012,10,23,13,03,7.10
2012,10,23,13,04,7.10
2012,10,23,13,05,7.10
2012,10,23,13,06,7.10
2012,10,23,13,07,7.10
2012,10,23,13,08,7.10
2012,10,23,13,09,7.10
2012,10,23,13,10,7.10
2012,10,23,13,12,7.20
2012,10,23,13,13,7.20
2012,10,23,13,14,7.20
2012,10,23,13,16,7.20
2012,10,23,13,17,7.30
2012,10,23,13,18,7.30
2012,10,23,13,19,7.40
2012,10,23,13,20,7.40
2012,10,23,13,21,7.40
2012,10,23,13,22,7.40
2012,10,23,13,24,7.50
2012,10,23,13,25,7.50
2012,10,23,13,26,7.50
2012,10,23,13,27,7.50
2012,10,23,13,28,7.50
2012,10,23,13,29,7.50
2012,10,23,13,30,7.50
2012,10,23,13,31,7.60
2012,10,23,13,33,7.60
2012,10,23,13,34,7.70
2012,10,23,13,35,7.70
2012,10,23,13,36,7.70
2012,10,23,13,37,7.70
2012,10,23,13,38,7.80
2012,10,23,13,39,7.80
2012,10,23,13,40,7.80
2012,10,23,13,41,7.80
2012,10,23,13,42,7.80
2012,10,23,13,44,7.90
2012,10,23,13,45,7.90
2012,10,23,13,47,7.90
2012,10,23,13,48,7.90
2012,10,23,13,50,8.00
2012,10,23,13,51,8.10
2012,10,23,13,52,8.10
2012,10,23,13,53,8.20
2012,10,23,13,54,8.30
2012,10,23,13,55,8.30
2012,10,23,13,56,8.40
2012,10,23,13,58,8.50
2012,10,23,13,59,8.60
2012,10,23,14,00,8.60
2012,10,23,14,02,8.70
2012,10,23,14,03,8.70
2012,10,23,14,04,8.70
2012,10,23,14,05,8.70
2012,10,23,14,06,8.70
2012,10,23,14,07,8.70
2012,10,23,14,08,8.70
2012,10,23,14,09,8.70
2012,10,23,14,10,8.70
2012,10,23,14,11,8.70
2012,10,23,14,12,8.70
2012,10,23,14,13,8.70
2012,10,23,14,14,8.70
2012,10,23,14,16,8.60
2012,10,23,14,17,8.70
2012,10,23,14,19,8.60
2012,10,23,14,20,8.60
2012,10,23,14,21,8.60
2012,10,23,14,23,8.60
2012,10,23,14,24,8.60
2012,10,23,14,25,8.60
2012,10,23,14,27,8.60
2012,10,23,14,28,8.60
2012,10,23,14,29,8.60
2012,10,23,14,30,8.60
2012,10,23,14,32,8.60
2012,10,23,14,33,8.60
2012,10,23,14,34,8.60
2012,10,23,14,35,8.70
2012,10,23,14,36,8.70
2012,10,23,14,37,8.70
2012,10,23,14,38,8.70
2012,10,23,14,40,8.70
2012,10,23,14,41,8.70
2012,10,23,14,42,8.80
2012,10,23,14,43,8.80
2012,10,23,14,45,8.80
2012,10,23,14,46,8.80
2012,10,23,14,47,8.80
2012,10,23,14,48,8.70
2012,10,23,14,50,8.70
2012,10,23,14,51,8.70
2012,10,23,14,52,8.60
2012,10,23,14,54,8.60
2012,10,23,14,55,8.60
2012,10,23,14,57,8.60
2012,10,23,14,58,8.60
2012,10,23,14,59,8.60
2012,10,23,15,00,8.60
2012,10,23,15,01,8.50
2012,10,23,15,02,8.50
2012,10,23,15,03,8.40
2012,10,23,15,05,8.40
2012,10,23,15,06,8.40
2012,10,23,15,07,8.40
2012,10,23,15,08,8.40
2012,10,23,15,10,8.40
2012,10,23,15,12,8.40
2012,10,23,15,13,8.40
2012,10,23,15,15,8.40
2012,10,23,15,16,8.40
2012,10,23,15,18,8.30
2012,10,23,15,19,8.30
2012,10,23,15,20,8.30
2012,10,23,15,21,8.30
2012,10,23,15,22,8.30
2012,10,23,15,24,8.30
2012,10,23,15,25,8.30
2012,10,23,15,26,8.30
2012,10,23,15,28,8.30
2012,10,23,15,29,8.40
2012,10,23,15,30,8.40
2012,10,23,15,32,8.40
2012,10,23,15,33,8.40
2012,10,23,15,34,8.40
2012,10,23,15,35,8.40
2012,10,23,15,36,8.40
2012,10,23,15,38,8.40
2012,10,23,15,40,8.40
2012,10,23,15,41,8.40
2012,10,23,15,42,8.30
2012,10,23,15,43,8.30
2012,10,23,15,44,8.30
2012,10,23,15,45,8.30
2012,10,23,15,46,8.30
2012,10,23,15,47,8.30
2012,10,23,15,49,8.30
2012,10,23,15,50,8.30
2012,10,23,15,51,8.30
2012,10,23,15,52,8.30
2012,10,23,15,53,8.30
2012,10,23,15,54,8.30
2012,10,23,15,55,8.30
2012,10,23,15,56,8.30
2012,10,23,15,57,8.30
2012,10,23,15,58,8.30
2012,10,23,15,59,8.30
2012,10,23,16,00,8.30
2012,10,23,16,01,8.40
2012,10,23,16,02,8.30
2012,10,23,16,03,8.30
2012,10,23,16,04,8.30
2012,10,23,16,05,8.30
2012,10,23,16,06,8.30
2012,10,23,16,07,8.20
2012,10,23,16,08,8.20
2012,10,23,16,09,8.20
2012,10,23,16,10,8.20
2012,10,23,16,12,8.10
2012,10,23,16,13,8.10
2012,10,23,16,14,8.10
2012,10,23,16,15,8.10
2012,10,23,16,16,8.10
2012,10,23,16,17,8.10
2012,10,23,16,18,8.10
2012,10,23,16,19,8.00
2012,10,23,16,20,8.00
2012,10,23,16,21,7.90
2012,10,23,16,22,7.90
2012,10,23,16,23,7.90
2012,10,23,16,24,7.90
2012,10,23,16,25,7.90
2012,10,23,16,26,7.90
2012,10,23,16,27,7.80
2012,10,23,16,28,7.80
2012,10,23,16,29,7.80
2012,10,23,16,30,7.80
2012,10,23,16,31,7.80
2012,10,23,16,32,7.80
2012,10,23,16,33,7.80
2012,10,23,16,34,7.80
2012,10,23,16,35,7.70
2012,10,23,16,36,7.70
2012,10,23,16,37,7.70
2012,10,23,16,38,7.70
2012,10,23,16,39,7.70
2012,10,23,16,40,7.70
2012,10,23,16,41,7.70
2012,10,23,16,42,7.70
2012,10,23,16,43,7.70
2012,10,23,16,44,7.70
2012,10,23,16,45,7.60
2012,10,23,16,46,7.60
2012,10,23,16,47,7.60
2012,10,23,16,48,7.60
2012,10,23,16,49,7.60
2012,10,23,16,50,7.60
2012,10,23,16,51,7.60
2012,10,23,16,52,7.60
2012,10,23,16,53,7.60
2012,10,23,16,54,7.60
2012,10,23,16,56,7.60
2012,10,23,16,58,7.60
2012,10,23,16,59,7.60
2012,10,23,17,00,7.60
2012,10,23,17,01,7.60
2012,10,23,17,02,7.60
2012,10,23,17,03,7.60
2012,10,23,17,04,7.60
2012,10,23,17,05,7.60
2012,10,23,17,06,7.60
2012,10,23,17,07,7.60
2012,10,23,17,08,7.60
2012,10,23,17,09,7.60
2012,10,23,17,10,7.50
2012,10,23,17,11,7.50
2012,10,23,17,12,7.50
2012,10,23,17,13,7.50
2012,10,23,17,14,7.40
2012,10,23,17,15,7.40
2012,10,23,17,16,7.40
2012,10,23,17,17,7.40
2012,10,23,17,19,7.40
2012,10,23,17,20,7.40
2012,10,23,17,21,7.40
2012,10,23,17,22,7.40
2012,10,23,17,23,7.40
2012,10,23,17,24,7.40
2012,10,23,17,25,7.40
2012,10,23,17,26,7.40
2012,10,23,17,27,7.40
2012,10,23,17,28,7.40
2012,10,23,17,29,7.40
2012,10,23,17,30,7.40
2012,10,23,17,31,7.30
2012,10,23,17,32,7.30
2012,10,23,17,33,7.30
2012,10,23,17,34,7.30
2012,10,23,17,35,7.30
2012,10,23,17,36,7.30
2012,10,23,17,37,7.30
2012,10,23,17,38,7.30
2012,10,23,17,39,7.30
2012,10,23,17,40,7.30
2012,10,23,17,41,7.30
2012,10,23,17,42,7.30
2012,10,23,17,43,7.30
2012,10,23,17,44,7.30
2012,10,23,17,45,7.30
2012,10,23,17,46,7.30
2012,10,23,17,47,7.30
2012,10,23,17,48,7.30
2012,10,23,17,49,7.30
2012,10,23,17,50,7.30
2012,10,23,17,51,7.30
2012,10,23,17,52,7.30
2012,10,23,17,53,7.30
2012,10,23,17,54,7.30
2012,10,23,17,55,7.30
2012,10,23,17,56,7.30
2012,10,23,17,57,7.30
2012,10,23,17,58,7.30
2012,10,23,17,59,7.30
2012,10,23,18,00,7.30
2012,10,23,18,01,7.30
2012,10,23,18,02,7.30
2012,10,23,18,04,7.30
2012,10,23,18,05,7.20
2012,10,23,18,06,7.20
2012,10,23,18,07,7.20
2012,10,23,18,08,7.20
2012,10,23,18,09,7.20
2012,10,23,18,10,7.20
2012,10,23,18,11,7.20
2012,10,23,18,12,7.20
2012,10,23,18,13,7.20
2012,10,23,18,14,7.20
2012,10,23,18,15,7.20
2012,10,23,18,16,7.20
2012,10,23,18,17,7.20
2012,10,23,18,18,7.20
2012,10,23,18,19,7.20
2012,10,23,18,20,7.20
2012,10,23,18,21,7.20
2012,10,23,18,22,7.20
2012,10,23,18,23,7.20
2012,10,23,18,24,7.20
2012,10,23,18,25,7.20
2012,10,23,18,26,7.20
2012,10,23,18,27,7.20
2012,10,23,18,28,7.20
2012,10,23,18,29,7.20
2012,10,23,18,30,7.20
2012,10,23,18,31,7.20
2012,10,23,18,32,7.20
2012,10,23,18,33,7.20
2012,10,23,18,34,7.20
2012,10,23,18,35,7.20
2012,10,23,18,36,7.20
2012,10,23,18,37,7.20
2012,10,23,18,38,7.20
2012,10,23,18,39,7.20
2012,10,23,18,40,7.20
2012,10,23,18,41,7.20
2012,10,23,18,42,7.20
2012,10,23,18,43,7.20
2012,10,23,18,44,7.20
2012,10,23,18,45,7.20
2012,10,23,18,46,7.20
2012,10,23,18,47,7.20
2012,10,23,18,48,7.20
2012,10,23,18,49,7.20
2012,10,23,18,50,7.20
2012,10,23,18,51,7.20
2012,10,23,18,52,7.20
2012,10,23,18,53,7.20
2012,10,23,18,54,7.20
2012,10,23,18,55,7.20
2012,10,23,18,56,7.20
2012,10,23,18,57,7.20
2012,10,23,18,58,7.20
2012,10,23,18,59,7.20
2012,10,23,19,00,7.20
2012,10,23,19,01,7.20
2012,10,23,19,02,7.20
2012,10,23,19,03,7.20
2012,10,23,19,04,7.20
2012,10,23,19,05,7.20
2012,10,23,19,06,7.20
2012,10,23,19,07,7.20
2012,10,23,19,08,7.20
2012,10,23,19,09,7.20
2012,10,23,19,10,7.20
2012,10,23,19,11,7.20
2012,10,23,19,12,7.20
2012,10,23,19,13,7.20
2012,10,23,19,14,7.20
2012,10,23,19,15,7.10
2012,10,23,19,16,7.20
2012,10,23,19,17,7.10
2012,10,23,19,18,7.10
2012,10,23,19,19,7.10
2012,10,23,19,20,7.10
2012,10,23,19,21,7.10
2012,10,23,19,22,7.10
2012,10,23,19,23,7.10
2012,10,23,19,24,7.10
2012,10,23,19,26,7.10
2012,10,23,19,27,7.10
2012,10,23,19,28,7.10
2012,10,23,19,29,7.10
2012,10,23,19,30,7.10
2012,10,23,19,31,7.10
2012,10,23,19,32,7.10
2012,10,23,19,33,7.00
2012,10,23,19,34,7.00
2012,10,23,19,35,7.00
2012,10,23,19,36,6.90
2012,10,23,19,37,6.90
2012,10,23,19,38,6.90
2012,10,23,19,39,6.90
2012,10,23,19,40,6.90
2012,10,23,19,41,6.80
2012,10,23,19,42,6.80
2012,10,23,19,43,6.80
2012,10,23,19,44,6.80
2012,10,23,19,45,6.80
2012,10,23,19,46,6.80
2012,10,23,19,47,6.70
2012,10,23,19,48,6.70
2012,10,23,19,49,6.70
2012,10,23,19,50,6.70
2012,10,23,19,51,6.70
2012,10,23,19,52,6.70
2012,10,23,19,53,6.60
2012,10,23,19,54,6.60
2012,10,23,19,55,6.60
2012,10,23,19,56,6.70
2012,10,23,19,57,6.70
2012,10,23,19,58,6.70
2012,10,23,19,59,6.70
2012,10,23,20,00,6.70
2012,10,23,20,01,6.70
2012,10,23,20,02,6.70
2012,10,23,20,03,6.70
2012,10,23,20,04,6.70
2012,10,23,20,05,6.70
2012,10,23,20,06,6.70
2012,10,23,20,07,6.60
2012,10,23,20,08,6.60
2012,10,23,20,09,6.60
2012,10,23,20,10,6.60
2012,10,23,20,11,6.60
2012,10,23,20,12,6.50
2012,10,23,20,13,6.50
2012,10,23,20,14,6.50
2012,10,23,20,15,6.50
2012,10,23,20,16,6.50
2012,10,23,20,17,6.50
2012,10,23,20,18,6.50
2012,10,23,20,19,6.50
2012,10,23,20,20,6.50
2012,10,23,20,21,6.50
2012,10,23,20,22,6.50
2012,10,23,20,23,6.50
2012,10,23,20,24,6.40
2012,10,23,20,25,6.40
2012,10,23,20,26,6.40
2012,10,23,20,27,6.40
2012,10,23,20,28,6.30
2012,10,23,20,29,6.30
2012,10,23,20,30,6.30
2012,10,23,20,31,6.30
2012,10,23,20,32,6.30
2012,10,23,20,33,6.30
2012,10,23,20,34,6.20
2012,10,23,20,35,6.20
2012,10,23,20,36,6.20
2012,10,23,20,37,6.20
2012,10,23,20,38,6.10
2012,10,23,20,39,6.10
2012,10,23,20,40,6.10
2012,10,23,20,41,6.00
2012,10,23,20,42,6.00
2012,10,23,20,43,5.90
2012,10,23,20,44,5.90
2012,10,23,20,45,5.90
2012,10,23,20,46,5.90
2012,10,23,20,47,5.80
2012,10,23,20,48,5.80
2012,10,23,20,49,5.80
2012,10,23,20,50,5.80
2012,10,23,20,51,5.70
2012,10,23,20,52,5.70
2012,10,23,20,53,5.70
2012,10,23,20,54,5.70
2012,10,23,20,55,5.60
2012,10,23,20,56,5.60
2012,10,23,20,57,5.60
2012,10,23,20,58,5.60
2012,10,23,20,59,5.50
2012,10,23,21,00,5.40
2012,10,23,21,01,5.40
2012,10,23,21,02,5.30
2012,10,23,21,03,5.30
2012,10,23,21,04,5.30
2012,10,23,21,05,5.20
2012,10,23,21,06,5.20
2012,10,23,21,07,5.10
2012,10,23,21,08,5.10
2012,10,23,21,09,5.00
2012,10,23,21,10,5.00
2012,10,23,21,11,4.90
2012,10,23,21,12,4.90
2012,10,23,21,13,4.90
2012,10,23,21,14,4.90
2012,10,23,21,15,4.90